Alicante, Spain

4:19 AM CET on December 13, 2017 (GMT +0100)
Alicante

Weather History for LEAL - October, 2011

Change the Weather History Date:

Saturday, October 1, 2011

  Actual Average Record
Temperature  
Mean Temperature 74 °F -  
Max Temperature 80 °F 75 °F 91 °F (2013)
Min Temperature 68 °F 58 °F 55 °F (1998)
Cooling Degree Days 9    
Growing Degree Days 24 (Base 50)    
Moisture  
Dew Point 62 °F    
Average Humidity 64    
Maximum Humidity 88    
Minimum Humidity 39    
Precipitation  
Precipitation 0.01 in - - ()
Sea Level Pressure  
Sea Level Pressure 30.16 in    
Wind  
Wind Speed 9 mph ()    
Max Wind Speed 24 mph    
Max Gust Speed -    
Visibility 6.3 miles    
Events Rain , Thunderstorm    
Averages and records for this station are not official NWS values.
T = Trace of Precipitation, MM = Missing Value Source: Averaged Metar Reports

Daily Weather History Graph

Daily Weather History Graph

Search for Another Location

Airport or City:

Trip Planner

Search our weather history database for the weather conditions in past years. The results will help you decide how hot, cold, wet, or windy it might be!

Date:

Astronomy

Oct. 01, 2011 Rise Set
Actual Time 7:57 AM CEST 7:45 PM CEST
Civil Twilight 7:31 AM CEST 8:12 PM CEST
Nautical Twilight 7:00 AM CEST 8:42 PM CEST
Astronomical Twilight 6:29 AM CEST 9:13 PM CEST
Moon 12:42 PM CEST (10/1) 10:33 PM CEST (10/1)
Length of Visible Light 12h 41m
Length of Day
11h 48m
Waxing Crescent, 21% of the Moon is Illuminated
Oct 1
Waxing Crescent
Oct 4
First Quarter
Oct 12
Full
Oct 20
Last Quarter
Oct 26
New

Hourly Weather History & Observations

Time (CEST) Temp. Heat Index Dew Point Humidity Pressure Visibility Wind Dir Wind Speed Gust Speed Precip Events Conditions
12:00 AM 73.4 °F - 60.8 °F 65% 30.18 in 6.2 mi North 5.8 mph - N/A   Partly Cloudy
12:30 AM 73.4 °F - 60.8 °F 65% 30.18 in 6.2 mi North 4.6 mph - N/A   Partly Cloudy
1:00 AM 71.6 °F - 60.8 °F 69% 30.18 in 6.2 mi North 5.8 mph - N/A   Partly Cloudy
1:30 AM 71.6 °F - 62.6 °F 73% 30.18 in 6.2 mi North 5.8 mph - N/A   Partly Cloudy
2:00 AM 71 °F - 61 °F 62% 30.19 in 6 mi NNE 8.1 mph - - Rain Light Rain
2:00 AM 71.6 °F - 62.6 °F 73% 30.18 in 6.2 mi North 5.8 mph - N/A Rain , Thunderstorm Thunderstorms and Rain
2:30 AM 69.8 °F - 64.4 °F 83% 30.18 in 6.2 mi NE 6.9 mph - N/A Rain , Thunderstorm Thunderstorms and Rain
3:00 AM 69.8 °F - 66.2 °F 88% 30.18 in 6.2 mi NNE 3.5 mph - N/A Rain , Thunderstorm Thunderstorms and Rain
3:30 AM 69.8 °F - 64.4 °F 83% 30.15 in 6.2 mi NNE 3.5 mph - N/A Thunderstorm Mostly Cloudy
4:00 AM 69.8 °F - 64.4 °F 83% 30.15 in 6.2 mi North 5.8 mph - N/A   Mostly Cloudy
4:30 AM 69.8 °F - 64.4 °F 83% 30.12 in 6.2 mi North 4.6 mph - N/A   Mostly Cloudy
5:00 AM 69.8 °F - 62.6 °F 78% 30.12 in 6.2 mi North 8.1 mph - N/A   Scattered Clouds
5:30 AM 69.8 °F - 60.8 °F 73% 30.12 in 6.2 mi North 5.8 mph - N/A   Scattered Clouds
6:00 AM 69.8 °F - 59.0 °F 68% 30.12 in 6.2 mi North 5.8 mph - N/A   Scattered Clouds
6:30 AM 69.8 °F - 59.0 °F 68% 30.12 in 6.2 mi North 4.6 mph - N/A   Scattered Clouds
7:00 AM 69.8 °F - 59.0 °F 68% 30.15 in 6.2 mi North 4.6 mph - N/A   Partly Cloudy
7:30 AM 69.8 °F - 59.0 °F 68% 30.15 in 6.2 mi North 4.6 mph - N/A   Partly Cloudy
8:00 AM 69 °F - 56 °F 53% 30.16 in 7 mi North 5.8 mph - -   Scattered Clouds
8:00 AM 69.8 °F - 59.0 °F 68% 30.15 in 6.2 mi North 5.8 mph - N/A   Partly Cloudy
8:30 AM 69.8 °F - 59.0 °F 68% 30.15 in 6.2 mi North 5.8 mph - N/A   Partly Cloudy
9:00 AM 69.8 °F - 59.0 °F 68% 30.15 in 6.2 mi North 5.8 mph - N/A   Partly Cloudy
9:30 AM 73.4 °F - 60.8 °F 65% 30.15 in 6.2 mi North 5.8 mph - N/A   Partly Cloudy
10:00 AM 75.2 °F - 60.8 °F 61% 30.18 in 6.2 mi North 6.9 mph - N/A   Partly Cloudy
10:30 AM 77.0 °F - 62.6 °F 61% 30.18 in 6.2 mi NNE 9.2 mph - N/A   Partly Cloudy
11:00 AM 77.0 °F - 64.4 °F 65% 30.18 in 6.2 mi NE 11.5 mph - N/A   Partly Cloudy
11:30 AM 77.0 °F - 66.2 °F 69% 30.18 in 6.2 mi NE 12.7 mph - N/A   Partly Cloudy
12:00 PM 78.8 °F - 64.4 °F 61% 30.18 in 6.2 mi ENE 15.0 mph - N/A   Partly Cloudy
12:30 PM 78.8 °F - 64.4 °F 61% 30.18 in 6.2 mi ENE 16.1 mph - N/A   Partly Cloudy
1:00 PM 78.8 °F - 66.2 °F 65% 30.18 in 6.2 mi ENE 16.1 mph - N/A   Partly Cloudy
1:30 PM 78.8 °F - 64.4 °F 61% 30.18 in 6.2 mi ENE 15.0 mph - N/A   Partly Cloudy
2:00 PM 80 °F - 59 °F 39% 30.17 in 9 mi ENE 17.3 mph - -   Scattered Clouds
2:00 PM 80.6 °F 81.8 °F 62.6 °F 54% 30.15 in 6.2 mi ENE 17.3 mph - N/A   Partly Cloudy
2:30 PM 80.6 °F 81.5 °F 60.8 °F 51% 30.15 in 6.2 mi East 17.3 mph - N/A   Partly Cloudy
3:00 PM 80.6 °F 81.5 °F 60.8 °F 51% 30.15 in 6.2 mi East 18.4 mph - N/A   Partly Cloudy
3:30 PM 78.8 °F - 62.6 °F 57% 30.15 in 6.2 mi East 18.4 mph - N/A   Partly Cloudy
4:00 PM 78.8 °F - 62.6 °F 57% 30.15 in 6.2 mi East 18.4 mph - N/A   Partly Cloudy
4:30 PM 78.8 °F - 62.6 °F 57% 30.12 in 6.2 mi East 20.7 mph - N/A   Partly Cloudy
5:00 PM 80.6 °F 81.5 °F 60.8 °F 51% 30.12 in - East 23.0 mph - N/A   Clear
5:30 PM 78.8 °F - 60.8 °F 54% 30.12 in - East 24.2 mph - N/A   Clear
6:00 PM 78.8 °F - 60.8 °F 54% 30.12 in - East 23.0 mph - N/A   Clear
6:30 PM 78.8 °F - 60.8 °F 54% 30.12 in - ENE 23.0 mph - N/A   Clear
7:00 PM 77.0 °F - 59.0 °F 54% 30.15 in - ENE 23.0 mph - N/A   Clear
7:30 PM 77.0 °F - 62.6 °F 61% 30.15 in - ENE 20.7 mph - N/A   Clear
8:00 PM 75 °F - 61 °F 53% 30.16 in 9 mi ENE 19.6 mph - -   Scattered Clouds
8:00 PM 75.2 °F - 64.4 °F 69% 30.15 in 6.2 mi ENE 18.4 mph - N/A   Partly Cloudy
8:30 PM 77.0 °F - 62.6 °F 61% 30.15 in 6.2 mi ENE 13.8 mph - N/A   Partly Cloudy
9:00 PM 75.2 °F - 64.4 °F 69% 30.18 in 6.2 mi ENE 12.7 mph - N/A   Partly Cloudy
9:30 PM 75.2 °F - 64.4 °F 69% 30.18 in - ENE 11.5 mph - N/A   Clear
10:00 PM 75.2 °F - 59.0 °F 57% 30.18 in 6.2 mi NNE 5.8 mph - N/A   Partly Cloudy
10:30 PM 73.4 °F - 59.0 °F 61% 30.21 in 6.2 mi NNE 4.6 mph - N/A   Partly Cloudy
11:00 PM 73.4 °F - 53.6 °F 50% 30.21 in 6.2 mi North 3.5 mph - N/A   Partly Cloudy
11:30 PM 73.4 °F - 55.4 °F 53% 30.21 in 6.2 mi North 4.6 mph - N/A   Partly Cloudy